Location: Kalispell
(48.1967°N, 114.3128°W)
Time: 16:02:28
(UTC-06:00)

Amateur Radio Satellites - All Passes

Search period start: 31 March 2015 15:32
Search period end: 01 April 2015 15:32
Location: Kalispell, 48.1967°N, 114.3128°W

Satellite Date Start Highest point End Downlink Frequencies (MHz)
Time Altitude Azimuth
Oscar 19 31 Mar 15:37:00 15:40:31 18° 272° (W) 15:43:54 437.125/150
AO-7 31 Mar 15:39:06 15:46:55 49° 60° (ENE) 15:54:48 29.400- 29.500
TISAT 1 31 Mar 15:43:26 15:45:43 14° 300° (WNW) 15:47:53 437.305
STARS 31 Mar 15:55:59 15:59:21 22° 92° (E) 16:02:48 437.465
SWISSCUBE 31 Mar 15:56:24 16:01:06 54° 290° (WNW) 16:05:45 437.505
BEESAT 31 Mar 15:58:56 16:03:38 55° 289° (WNW) 16:08:18 436.000
Gurwin Techsat 1B 31 Mar 16:09:33 16:14:18 32° 266° (W) 16:19:02 435.225
AIST 1 31 Mar 16:37:23 16:41:24 37° 268° (W) 16:45:21
JAS-2 31 Mar 16:38:46 16:45:54 73° 71° (ENE) 16:53:41 435.910
HORYU 2 31 Mar 16:44:25 16:48:42 47° 261° (W) 16:53:02 437.375
ITUPSAT 1 31 Mar 16:48:03 16:51:50 23° 298° (WNW) 16:55:31 437.325
ITAMSAT 1 31 Mar 16:49:17 16:51:38 13° 275° (W) 16:53:42 435.822/435.867
BEESAT 3 31 Mar 17:02:36 17:04:45 14° 25° (NNE) 17:06:58 437.485
PCSat 31 Mar 17:04:46 17:09:42 34° 318° (NW) 17:14:37 145.827
KKS-1 31 Mar 17:05:29 17:09:51 54° 289° (WNW) 17:14:11 437.445
MOZHAYETS 4 31 Mar 17:21:51 17:25:00 18° 89° (E) 17:28:16
YUBILEINY 31 Mar 17:29:24 17:34:58 17° 311° (NW) 17:40:11 435.215
STARS 31 Mar 17:31:51 17:36:04 45° 290° (WNW) 17:40:15 437.465
AO-7 31 Mar 17:31:52 17:39:50 47° 261° (W) 17:47:45 29.400- 29.500
CUTE-I 31 Mar 17:46:01 17:50:17 25° 61° (ENE) 17:54:38 437.470
Cubesat XI-IV 31 Mar 17:46:53 17:51:12 26° 61° (ENE) 17:55:37 437.490
AIST 2 31 Mar 17:54:21 17:56:46 15° 25° (NNE) 17:59:14 435.215
BEESAT 2 31 Mar 18:05:44 18:09:19 27° 38° (NE) 18:12:52 435.950
SO-50 31 Mar 18:10:49 18:11:31 10° 108° (ESE) 18:12:30 436.795
JAS-2 31 Mar 18:25:40 18:31:44 28° 273° (W) 18:38:02 435.910
BEESAT 3 31 Mar 18:39:40 18:43:44 52° 47° (NE) 18:47:45 437.485
RS-15 31 Mar 18:42:25 18:51:14 31° 106° (ESE) 19:00:28 29.354- 29.394
AUBIESAT-1 31 Mar 18:46:12 18:50:29 31° 99° (E) 18:54:42 437.475
HO-68 31 Mar 18:47:32 18:50:07 12° 41° (NE) 18:52:59 435.675
PCSat 31 Mar 18:52:25 18:54:52 13° 343° (NNW) 18:57:15 145.827
MOZHAYETS 4 31 Mar 18:58:04 19:02:41 58° 288° (WNW) 19:07:13
PRISM 31 Mar 19:03:00 19:03:46 11° 86° (E) 19:04:46 437.425
M-CUBED/EXP-1 PRIME 31 Mar 19:12:33 19:17:22 59° 105° (ESE) 19:22:05 437.505
CUBESAT XI-V 31 Mar 19:15:39 19:19:10 21° 90° (E) 19:22:45 437.345
CUTE-I 31 Mar 19:24:46 19:30:03 57° 259° (W) 19:35:21 437.470
Cubesat XI-IV 31 Mar 19:25:45 19:31:01 55° 260° (W) 19:36:19 437.490
STRAND 1 31 Mar 19:26:03 19:29:00 16° 87° (E) 19:32:10 437.568
AIST 2 31 Mar 19:32:05 19:36:19 54° 47° (NE) 19:40:28 435.215
BEESAT 2 31 Mar 19:43:39 19:47:40 49° 238° (WSW) 19:51:37 435.950
BRITE-PL 31 Mar 19:44:48 19:47:24 16° 62° (ENE) 19:50:05 437.365/2234.400
GONETS M04 31 Mar 19:45:17 19:53:28 49° 89° (E) 20:01:48
SO-50 31 Mar 19:46:37 19:51:15 71° 125° (SE) 19:56:05 436.795
GOMX 1 31 Mar 20:17:48 20:20:59 21° 64° (ENE) 20:24:10 467.674
BEESAT 3 31 Mar 20:18:22 20:21:30 21° 245° (WSW) 20:24:31 437.485
AUBIESAT-1 31 Mar 20:20:49 20:25:21 40° 298° (WNW) 20:29:47 437.475
HO-68 31 Mar 20:29:31 20:36:14 46° 62° (ENE) 20:43:03 435.675
CANX-2 31 Mar 20:31:53 20:35:22 26° 66° (ENE) 20:38:56 2200.000
PRISM 31 Mar 20:35:44 20:39:57 84° 287° (WNW) 20:44:06 437.425
PCSat 31 Mar 20:39:31 20:40:49 11° 9° (N) 20:42:11 145.827
CUTE 1.7 + AOD 2 31 Mar 20:45:08 20:48:51 31° 68° (ENE) 20:52:40 437.475
M-CUBED/EXP-1 PRIME 31 Mar 20:48:01 20:51:53 24° 304° (WNW) 20:55:38 437.505
RS-15 31 Mar 20:51:33 21:02:30 84° 310° (NW) 21:13:47 29.354- 29.394
CUBESAT XI-V 31 Mar 20:52:26 20:56:55 48° 290° (WNW) 21:01:21 437.345
CINEMA 3 31 Mar 20:52:38 20:55:17 17° 62° (ENE) 20:58:03 145.822/145.860
AAUSAT CUBESAT 2 31 Mar 20:59:50 21:03:22 27° 66° (ENE) 21:06:58 437.432
STRAND 1 31 Mar 21:03:46 21:08:55 78° 286° (WNW) 21:14:00 437.568
SEEDS 31 Mar 21:10:07 21:14:08 46° 71° (ENE) 21:18:15 437.485
AIST 2 31 Mar 21:11:21 21:14:36 21° 246° (WSW) 21:17:44 435.215
UKube-1 31 Mar 21:19:08 21:20:15 11° 56° (ENE) 21:21:34 .
DANDE 31 Mar 21:19:55 21:21:52 18° 95° (E) 21:23:47 436.750
BRITE-PL 31 Mar 21:21:04 21:25:37 66° 258° (WSW) 21:29:54 437.365/2234.400
SO-50 31 Mar 21:28:16 21:32:17 26° 327° (NNW) 21:36:23 436.795
COMPASS 1 31 Mar 21:28:26 21:32:33 59° 73° (ENE) 21:36:44 437.405
DOVE 4 31 Mar 21:30:41 21:34:55 72° 75° (ENE) 21:39:05 437.250
DX 1 31 Mar 21:31:24 21:33:50 15° 59° (ENE) 21:36:24 434.975-435.025
GONETS M04 31 Mar 21:42:14 21:50:29 44° 292° (WNW) 21:58:47
Oscar 11 31 Mar 21:44:18 21:48:19 39° 69° (ENE) 21:52:23 145.826/435.025
GOMX 1 31 Mar 21:54:44 21:58:56 45° 261° (W) 22:03:00 467.674
CUSAT 1 31 Mar 21:56:11 21:58:50 79° 282° (WNW) 22:01:29 437.405
DELFI C3 31 Mar 21:58:01 22:01:50 40° 70° (ENE) 22:05:43 145.870
FUNcube-1 31 Mar 22:00:35 22:04:10 30° 67° (ENE) 22:07:51 145.935
CANX-2 31 Mar 22:07:14 22:11:11 36° 264° (W) 22:15:09 2200.000
UWE-3 31 Mar 22:11:29 22:15:27 46° 71° (ENE) 22:19:30 435.000/436.395/437.385
PRISM 31 Mar 22:13:27 22:14:48 11° 303° (WNW) 22:15:58 437.425
ZACube-1 31 Mar 22:14:10 22:18:03 41° 70° (ENE) 22:22:01 437.345
HO-68 31 Mar 22:17:16 22:24:03 43° 263° (W) 22:30:50 435.675
CUTE 1.7 + AOD 2 31 Mar 22:21:03 22:24:48 29° 266° (W) 22:28:32 437.475
VELOX 1 31 Mar 22:21:10 22:24:24 21° 63° (ENE) 22:27:45 145.980
CUBEBUG 2 31 Mar 22:22:00 22:26:07 72° 74° (ENE) 22:30:19 437.445
PCSat 31 Mar 22:22:03 22:26:20 23° 34° (NE) 22:30:41 145.827
AISAT 31 Mar 22:26:44 22:30:14 24° 64° (ENE) 22:33:48 437.250
CINEMA 3 31 Mar 22:28:04 22:32:10 55° 260° (W) 22:36:15 145.822/145.860
ISS 31 Mar 22:28:25 22:30:20 15° 137° (SE) 22:32:19 145.825
AAUSAT CUBESAT 2 31 Mar 22:35:07 22:38:55 33° 264° (W) 22:42:45 437.432
HUMSAT D 31 Mar 22:43:46 22:47:39 43° 70° (ENE) 22:51:36 437.325/437.525
STRAND 1 31 Mar 22:44:46 22:47:22 14° 305° (NW) 22:49:46 437.568
SEEDS 31 Mar 22:47:06 22:50:15 20° 270° (W) 22:53:19 437.485
UKube-1 31 Mar 22:51:23 22:55:43 78° 73° (ENE) 23:00:05 .
50 SAT 31 Mar 22:59:07 23:02:48 41° 70° (ENE) 23:06:34 437.505
DANDE 31 Mar 23:03:41 23:05:10 13° 292° (WNW) 23:06:32 436.750
ESTCUBE 1 31 Mar 23:04:53 23:08:46 29° 66° (ENE) 23:12:44 437.505/2401.250
DX 1 31 Mar 23:05:14 23:09:36 74° 257° (WSW) 23:13:59 434.975-435.025
COMPASS 1 31 Mar 23:06:07 23:08:42 15° 272° (W) 23:11:10 437.405
RS-15 31 Mar 23:06:29 23:16:40 40° 339° (NNW) 23:27:08 29.354- 29.394
ANTELSAT 31 Mar 23:10:56 23:13:45 16° 88° (E) 23:16:46 437.575/2403.000
DOVE 4 31 Mar 23:11:29 23:13:18 12° 273° (W) 23:14:54 437.250
SO-50 31 Mar 23:12:25 23:14:30 12° 351° (N) 23:16:33 436.795
Oscar 11 31 Mar 23:21:06 23:24:39 24° 268° (W) 23:28:11 145.826/435.025
TISAT 1 31 Mar 23:29:26 23:30:50 12° 58° (ENE) 23:32:24 437.305
NANOSAT C BR1 31 Mar 23:30:42 23:32:11 12° 86° (E) 23:33:53 145.865
DELFI C3 31 Mar 23:34:02 23:37:13 21° 269° (W) 23:40:18 145.870
YUBILEINY 31 Mar 23:36:46 23:42:58 21° 53° (NE) 23:49:27 435.215
POLYITAN 1 31 Mar 23:36:49 23:39:04 14° 88° (E) 23:41:28 437.675
FUNcube-1 31 Mar 23:36:53 23:40:31 29° 265° (W) 23:44:11 145.935
GONETS M04 31 Mar 23:47:51 23:50:32 11° 320° (NW) 23:52:42
SPROUT 31 Mar 23:47:58 23:51:04 20° 63° (ENE) 23:54:14 437.525
CUBEBUG 1 31 Mar 23:48:10 23:52:32 65° 73° (ENE) 23:56:54 437.445
UWE-3 31 Mar 23:49:20 23:52:20 18° 270° (W) 23:55:13 435.000/436.395/437.385
ZACube-1 31 Mar 23:51:26 23:54:39 21° 269° (W) 23:57:49 437.345
VELOX 1 31 Mar 23:56:21 00:00:42 51° 261° (W) 00:05:02 145.980
CUBEBUG 2 01 Apr 00:01:42 00:03:27 12° 274° (W) 00:05:02 437.445
AISAT 01 Apr 00:02:23 00:06:38 43° 262° (W) 00:10:53 437.250
ISS 01 Apr 00:03:04 00:06:19 75° 155° (SSE) 00:09:35 145.825
PCSat 01 Apr 00:05:03 00:10:31 89° 237° (WSW) 00:15:58 145.827
UNISAT 6 01 Apr 00:05:44 00:10:13 52° 99° (E) 00:14:48 437.425
QB50P1 01 Apr 00:11:18 00:15:03 30° 95° (E) 00:18:50 145.935-145.965
DUCHIFAT 1 01 Apr 00:11:33 00:15:16 30° 95° (E) 00:19:01 145.980
TIGRISAT 01 Apr 00:14:38 00:19:11 62° 101° (E) 00:23:49 435.000
HUMSAT D 01 Apr 00:20:36 00:23:41 20° 269° (W) 00:26:41 437.325/437.525
QB50P2 01 Apr 00:26:56 00:31:01 45° 99° (E) 00:35:06 145.880/145.840
UKube-1 01 Apr 00:30:35 00:32:30 12° 273° (W) 00:34:14 .
50 SAT 01 Apr 00:35:05 00:37:57 19° 269° (W) 00:40:45 437.505
BUGSAT 1 01 Apr 00:39:34 00:43:25 41° 98° (E) 00:47:16 437.445
ESTCUBE 1 01 Apr 00:41:21 00:45:34 36° 264° (W) 00:49:47 437.505/2401.250
ITUPSAT 1 01 Apr 00:44:49 00:47:21 15° 57° (ENE) 00:50:03 437.325
ANTELSAT 01 Apr 00:46:28 00:51:02 66° 287° (WNW) 00:55:39 437.575/2403.000
SO-50 01 Apr 00:54:32 00:57:05 14° 15° (NNE) 00:59:42 436.795
POPSAT HIP 1 01 Apr 00:54:59 00:59:15 85° 108° (ESE) 01:03:29 437.405
TISAT 1 01 Apr 01:01:48 01:06:02 88° 76° (ENE) 01:10:16 437.305
NANOSAT C BR1 01 Apr 01:04:26 01:08:40 77° 286° (WNW) 01:12:54 145.865
POLYITAN 1 01 Apr 01:11:16 01:15:29 65° 288° (WNW) 01:19:42 437.675
RS-15 01 Apr 01:22:38 01:32:42 36° 13° (NNE) 01:43:11 29.354- 29.394
SPROUT 01 Apr 01:22:41 01:26:52 49° 261° (W) 01:31:03 437.525
CUBEBUG 1 01 Apr 01:26:46 01:29:24 15° 272° (W) 01:31:53 437.445
SWISSCUBE 01 Apr 01:29:11 01:33:32 36° 66° (ENE) 01:37:56 437.505
BEESAT 01 Apr 01:31:41 01:35:59 35° 66° (ENE) 01:40:22 436.000
YUBILEINY 01 Apr 01:32:42 01:41:35 79° 79° (ENE) 01:50:23 435.215
ISS 01 Apr 01:39:44 01:42:52 45° 354° (N) 01:46:01 145.825
UNISAT 6 01 Apr 01:43:12 01:46:44 22° 297° (WNW) 01:50:13 437.425
QB50P1 01 Apr 01:47:12 01:50:55 29° 293° (WNW) 01:54:35 145.935-145.965
DUCHIFAT 1 01 Apr 01:47:23 01:51:06 30° 293° (WNW) 01:54:45 145.980
PCSat 01 Apr 01:50:03 01:53:16 16° 254° (WSW) 01:56:15 145.827
TIGRISAT 01 Apr 01:52:21 01:55:34 19° 298° (WNW) 01:58:43 435.000
QB50P2 01 Apr 02:03:25 02:06:41 21° 296° (WNW) 02:09:52 145.880/145.840
Oscar 19 01 Apr 02:04:16 02:07:46 19° 89° (E) 02:11:26 437.125/150
BUGSAT 1 01 Apr 02:15:38 02:18:41 21° 296° (WNW) 02:21:40 437.445
ITUPSAT 1 01 Apr 02:19:47 02:24:37 90° 56° (ENE) 02:29:30 437.325
ANTELSAT 01 Apr 02:26:24 02:27:04 10° 304° (NW) 02:27:31 437.575/2403.000
KKS-1 01 Apr 02:31:23 02:35:03 27° 65° (ENE) 02:38:49 437.445
POPSAT HIP 1 01 Apr 02:32:39 02:34:35 13° 301° (WNW) 02:36:20 437.405
SO-50 01 Apr 02:34:33 02:39:05 35° 38° (NE) 02:43:37 436.795
TISAT 1 01 Apr 02:41:57 02:42:33 10° 275° (W) 02:42:55 437.305
NANOSAT C BR1 01 Apr 02:43:02 02:43:51 10° 303° (WNW) 02:44:29 145.865
Gurwin Techsat 1B 01 Apr 02:43:48 02:45:29 12° 83° (E) 02:47:28 435.225
STARS 01 Apr 02:56:24 03:00:12 30° 66° (ENE) 03:04:04 437.465
SWISSCUBE 01 Apr 03:07:07 03:11:26 32° 265° (W) 03:15:44 437.505
BEESAT 01 Apr 03:09:33 03:13:53 32° 265° (W) 03:18:11 436.000
ITAMSAT 1 01 Apr 03:15:39 03:19:57 26° 93° (E) 03:24:17 435.822/435.867
ISS 01 Apr 03:16:23 03:19:35 56° 14° (NNE) 03:22:48 145.825
YUBILEINY 01 Apr 03:30:36 03:37:35 26° 280° (W) 03:44:15 435.215
AIST 1 01 Apr 03:35:51 03:37:15 12° 83° (E) 03:38:53
RS-15 01 Apr 03:36:16 03:47:36 67° 43° (NE) 03:59:28 29.354- 29.394
Oscar 19 01 Apr 03:42:32 03:47:41 68° 288° (WNW) 03:52:50 437.125/150
O/OREOS (USA 219) 01 Apr 03:58:36 04:02:18 25° 105° (ESE) 04:06:07 437.305
ITUPSAT 1 01 Apr 04:01:12 04:03:19 12° 275° (W) 04:05:12 437.325
AUBIESAT-1 01 Apr 04:06:25 04:07:41 11° 48° (NE) 04:09:08 437.475
KKS-1 01 Apr 04:07:26 04:11:35 37° 263° (W) 04:15:43 437.445
SO-50 01 Apr 04:15:02 04:19:50 49° 239° (WSW) 04:24:34 436.795
Gurwin Techsat 1B 01 Apr 04:21:08 04:26:29 78° 103° (ESE) 04:31:49 435.225
MOZHAYETS 4 01 Apr 04:27:10 04:31:00 27° 65° (ENE) 04:34:55
M-CUBED/EXP-1 PRIME 01 Apr 04:31:21 04:34:22 19° 54° (NE) 04:37:38 437.505
HORYU 2 01 Apr 04:32:18 04:36:02 25° 93° (E) 04:39:50 437.375
STARS 01 Apr 04:32:42 04:36:39 32° 264° (W) 04:40:35 437.465
ISS 01 Apr 04:52:53 04:55:56 39° 213° (SSW) 04:58:58 145.825
ITAMSAT 1 01 Apr 04:54:43 04:59:43 48° 292° (WNW) 05:04:39 435.822/435.867
AIST 1 01 Apr 05:09:55 05:14:21 80° 281° (WNW) 05:18:45
Oscar 19 01 Apr 05:24:03 05:26:13 12° 306° (NW) 05:28:10 437.125/150
AO-7 01 Apr 05:28:38 05:36:37 50° 100° (E) 05:44:38 29.400- 29.500
JAS-2 01 Apr 05:29:49 05:37:22 52° 96° (E) 05:44:19 435.910
O/OREOS (USA 219) 01 Apr 05:37:08 05:41:33 43° 303° (WNW) 05:45:58 437.305
AUBIESAT-1 01 Apr 05:37:26 05:41:36 64° 67° (ENE) 05:46:09 437.475
RS-15 01 Apr 05:49:03 05:59:48 47° 247° (WSW) 06:10:48 29.354- 29.394
GONETS M04 01 Apr 05:50:37 05:58:07 31° 61° (ENE) 06:05:47
PRISM 01 Apr 05:56:08 05:58:29 15° 60° (ENE) 06:00:58 437.425
Gurwin Techsat 1B 01 Apr 06:02:13 06:05:56 19° 302° (WNW) 06:09:30 435.225
MOZHAYETS 4 01 Apr 06:03:41 06:08:05 41° 263° (W) 06:12:30
M-CUBED/EXP-1 PRIME 01 Apr 06:04:37 06:08:46 64° 253° (WSW) 06:13:19 437.505
VERMONT LUNAR 01 Apr 06:04:53 06:07:03 16° 165° (SSE) 06:09:15 437.305
HORYU 2 01 Apr 06:08:37 06:12:51 40° 292° (WNW) 06:17:02 437.375
CUBESAT XI-V 01 Apr 06:22:22 06:26:31 32° 67° (ENE) 06:30:43 437.345
STRAND 1 01 Apr 06:44:53 06:49:27 34° 65° (ENE) 06:54:05 437.568
CUSAT 1 01 Apr 06:45:49 06:47:32 12° 65° (ENE) 06:49:39 437.405
AIST 1 01 Apr 06:52:21 06:52:53 10° 301° (WNW) 06:53:13
PHONESAT 2.4 01 Apr 07:10:37 07:13:11 19° 167° (SSE) 07:15:46 2401.200-2431.200
AUBIESAT-1 01 Apr 07:14:14 07:16:59 16° 268° (W) 07:19:43 437.475
JAS-2 01 Apr 07:15:03 07:22:15 42° 298° (WNW) 07:28:54 435.910
AO-7 01 Apr 07:21:38 07:29:27 47° 301° (WNW) 07:37:11 29.400- 29.500
PRISM 01 Apr 07:29:17 07:33:30 70° 257° (WSW) 07:37:44 437.425
CUTE-I 01 Apr 07:38:09 07:43:13 43° 98° (E) 07:48:17 437.470
Cubesat XI-IV 01 Apr 07:39:16 07:44:23 45° 98° (E) 07:49:29 437.490
VERMONT LUNAR 01 Apr 07:41:28 07:44:07 22° 182° (S) 07:46:46 437.305
GONETS M04 01 Apr 07:47:06 07:55:55 73° 265° (W) 08:04:42
DANDE 01 Apr 07:52:38 07:56:19 33° 74° (ENE) 08:01:06 436.750
CUBESAT XI-V 01 Apr 07:59:39 08:03:57 34° 265° (W) 08:08:13 437.345
STRAND 1 01 Apr 08:23:51 08:28:37 38° 263° (W) 08:33:24 437.568
CUSAT 1 01 Apr 08:26:19 08:30:38 90° 74° (ENE) 08:36:27 437.405
PHONESAT 2.4 01 Apr 08:48:04 08:50:54 23° 184° (S) 08:53:45 2401.200-2431.200
JAS-2 01 Apr 09:02:36 09:05:21 12° 319° (NW) 09:07:43 435.910
AO-7 01 Apr 09:16:07 09:20:21 15° 324° (NW) 09:24:19 29.400- 29.500
CUTE-I 01 Apr 09:18:31 09:23:12 31° 297° (WNW) 09:27:47 437.470
VERMONT LUNAR 01 Apr 09:19:16 09:21:09 14° 198° (SSW) 09:23:00 437.305
Cubesat XI-IV 01 Apr 09:19:43 09:24:21 30° 297° (WNW) 09:28:54 437.490
BRITE-PL 01 Apr 09:21:56 09:25:28 26° 94° (E) 09:29:12 437.365/2234.400
DOVE 4 01 Apr 09:26:48 09:29:08 14° 88° (E) 09:31:43 437.250
DANDE 01 Apr 09:35:58 09:39:34 27° 264° (W) 09:44:03 436.750
HO-68 01 Apr 09:40:35 09:46:54 33° 93° (E) 09:53:18 435.675
BEESAT 2 01 Apr 09:43:14 09:44:59 13° 111° (ESE) 09:46:56 435.950
TIGRISAT 01 Apr 09:44:00 09:45:18 11° 57° (ENE) 09:46:47 435.000
GONETS M04 01 Apr 09:46:04 09:51:21 17° 286° (WNW) 09:56:09
CANX-2 01 Apr 09:48:52 09:52:40 30° 94° (E) 09:56:30 2200.000
GOMX 1 01 Apr 09:52:07 09:56:04 35° 97° (E) 10:00:13 467.674
CUTE 1.7 + AOD 2 01 Apr 10:02:11 10:06:12 37° 96° (E) 10:10:13 437.475
CUBEBUG 2 01 Apr 10:10:57 10:12:43 12° 86° (E) 10:14:45 437.445
CUSAT 1 01 Apr 10:11:25 10:13:18 12° 269° (W) 10:15:04 437.405
ANTELSAT 01 Apr 10:13:45 10:17:00 22° 63° (ENE) 10:20:23 437.575/2403.000
BEESAT 3 01 Apr 10:14:24 10:17:56 29° 118° (ESE) 10:21:34 437.485
AAUSAT CUBESAT 2 01 Apr 10:14:26 10:18:11 30° 95° (E) 10:21:57 437.432
POPSAT HIP 1 01 Apr 10:18:09 10:20:05 13° 59° (ENE) 10:22:11 437.405
CINEMA 3 01 Apr 10:19:01 10:22:42 26° 93° (E) 10:26:36 145.822/145.860
SEEDS 01 Apr 10:26:29 10:30:43 55° 100° (E) 10:34:55 437.485
NANOSAT C BR1 01 Apr 10:26:44 10:29:13 16° 61° (ENE) 10:31:51 145.865
PHONESAT 2.4 01 Apr 10:26:44 10:28:34 13° 201° (SSW) 10:30:20 2401.200-2431.200
POLYITAN 1 01 Apr 10:33:31 10:36:24 19° 62° (ENE) 10:39:23 437.675
COMPASS 1 01 Apr 10:43:57 10:48:13 70° 102° (ESE) 10:52:27 437.405
DX 1 01 Apr 10:51:22 10:53:44 15° 88° (E) 10:56:16 434.975-435.025
BRITE-PL 01 Apr 11:00:19 11:04:08 34° 291° (WNW) 11:08:04 437.365/2234.400
DOVE 4 01 Apr 11:03:05 11:07:25 68° 286° (WNW) 11:11:56 437.250
Oscar 11 01 Apr 11:03:48 11:08:02 47° 99° (E) 11:12:16 145.826/435.025
DUCHIFAT 1 01 Apr 11:07:31 11:11:22 36° 69° (ENE) 11:15:15 145.980
QB50P1 01 Apr 11:07:35 11:11:27 37° 69° (ENE) 11:15:22 145.935-145.965
UNISAT 6 01 Apr 11:08:25 11:12:41 70° 74° (ENE) 11:17:03 437.425
DELFI C3 01 Apr 11:09:05 11:13:00 41° 98° (E) 11:16:54 145.870
AIST 2 01 Apr 11:11:51 11:15:42 34° 118° (ESE) 11:19:37 435.215
TIGRISAT 01 Apr 11:17:05 11:21:22 83° 75° (ENE) 11:25:45 435.000
BEESAT 2 01 Apr 11:18:26 11:22:35 84° 307° (NW) 11:26:47 435.950
FUNcube-1 01 Apr 11:20:48 11:24:56 39° 97° (E) 11:29:10 145.935
QB50P2 01 Apr 11:23:19 11:27:25 54° 72° (ENE) 11:31:34 145.880/145.840
CANX-2 01 Apr 11:24:46 11:28:37 31° 292° (WNW) 11:32:25 2200.000
HO-68 01 Apr 11:27:59 11:35:04 59° 294° (WNW) 11:42:04 435.675
GOMX 1 01 Apr 11:30:32 11:34:10 27° 293° (WNW) 11:37:53 467.674
BUGSAT 1 01 Apr 11:33:02 11:37:01 48° 71° (ENE) 11:41:00 437.445
UWE-3 01 Apr 11:33:38 11:38:02 65° 101° (E) 11:42:34 435.000/436.395/437.385
ZACube-1 01 Apr 11:34:52 11:39:12 55° 100° (E) 11:43:37 437.345
CUTE 1.7 + AOD 2 01 Apr 11:38:22 11:41:59 26° 294° (WNW) 11:45:32 437.475
VELOX 1 01 Apr 11:43:46 11:47:14 23° 92° (E) 11:50:47 145.980
CUBEBUG 2 01 Apr 11:45:36 11:50:03 82° 286° (WNW) 11:54:38 437.445
ANTELSAT 01 Apr 11:49:25 11:53:33 46° 262° (W) 11:57:46 437.575/2403.000
AISAT 01 Apr 11:49:44 11:53:28 27° 94° (E) 11:57:14 437.250
AAUSAT CUBESAT 2 01 Apr 11:50:04 11:53:48 30° 293° (WNW) 11:57:29 437.432
POPSAT HIP 1 01 Apr 11:51:14 11:55:26 80° 255° (WSW) 11:59:41 437.405
BEESAT 3 01 Apr 11:51:59 11:55:54 39° 317° (NW) 11:59:50 437.485
CINEMA 3 01 Apr 11:55:56 12:00:03 39° 290° (WNW) 12:04:19 145.822/145.860
HUMSAT D 01 Apr 11:59:41 12:03:51 51° 99° (E) 12:08:03 437.325/437.525
NANOSAT C BR1 01 Apr 12:00:29 12:04:40 64° 258° (WSW) 12:08:52 145.865
SEEDS 01 Apr 12:03:10 12:06:11 18° 297° (WNW) 12:09:05 437.485
POLYITAN 1 01 Apr 12:07:53 12:12:00 52° 260° (W) 12:16:08 437.675
50 SAT 01 Apr 12:07:55 12:11:45 41° 98° (E) 12:15:37 437.505
UKube-1 01 Apr 12:11:26 12:15:48 86° 107° (ESE) 12:20:07 .
COMPASS 1 01 Apr 12:20:56 12:23:27 15° 299° (WNW) 12:25:50 437.405
O/OREOS (USA 219) 01 Apr 12:25:48 12:28:31 16° 43° (NE) 12:31:19 437.305
DX 1 01 Apr 12:26:11 12:30:30 65° 288° (WNW) 12:34:47 434.975-435.025
ESTCUBE 1 01 Apr 12:30:12 12:34:24 36° 97° (E) 12:38:34 437.505/2401.250
Oscar 11 01 Apr 12:40:36 12:43:57 21° 296° (WNW) 12:47:13 145.826/435.025
DUCHIFAT 1 01 Apr 12:43:50 12:47:20 24° 267° (W) 12:50:45 145.980
QB50P1 01 Apr 12:44:00 12:47:28 24° 267° (W) 12:50:53 145.935-145.965
DELFI C3 01 Apr 12:44:46 12:47:57 21° 295° (WNW) 12:51:02 145.870
YUBILEINY 01 Apr 12:45:19 12:50:41 19° 76° (ENE) 12:56:30 435.215
TISAT 1 01 Apr 12:45:24 12:46:19 11° 86° (E) 12:47:28 437.305
UNISAT 6 01 Apr 12:47:50 12:50:05 13° 273° (W) 12:52:10 437.425
AIST 2 01 Apr 12:50:16 12:54:17 37° 318° (NW) 12:58:18 435.215
TIGRISAT 01 Apr 12:57:26 12:58:52 11° 275° (W) 13:00:05 435.000
FUNcube-1 01 Apr 12:57:29 13:01:08 26° 294° (WNW) 13:04:47 145.935
BEESAT 2 01 Apr 12:58:25 13:01:22 18° 330° (NNW) 13:04:16 435.950
QB50P2 01 Apr 13:00:56 13:03:43 17° 271° (W) 13:06:23 145.880/145.840
ITAMSAT 1 01 Apr 13:02:30 13:03:29 11° 51° (NE) 13:04:43 435.822/435.867
SPROUT 01 Apr 13:06:14 13:09:33 22° 92° (E) 13:12:56 437.525
CUBEBUG 1 01 Apr 13:09:44 13:14:05 80° 102° (ESE) 13:18:26 437.445
BUGSAT 1 01 Apr 13:09:57 13:12:49 18° 269° (W) 13:15:34 437.445
UWE-3 01 Apr 13:11:15 13:14:11 17° 298° (WNW) 13:17:02 435.000/436.395/437.385
ZACube-1 01 Apr 13:12:04 13:15:15 19° 297° (WNW) 13:18:23 437.345
HO-68 01 Apr 13:17:23 13:21:30 16° 315° (NW) 13:25:20 435.675
VELOX 1 01 Apr 13:19:50 13:24:01 42° 291° (WNW) 13:28:10 145.980
Oscar 19 01 Apr 13:24:20 13:29:00 38° 67° (ENE) 13:33:47 437.125/150
CUBEBUG 2 01 Apr 13:24:26 13:26:09 12° 302° (WNW) 13:27:41 437.445
AISAT 01 Apr 13:26:07 13:30:10 36° 292° (WNW) 13:34:12 437.250
BEESAT 3 01 Apr 13:33:25 13:35:04 12° 339° (NNW) 13:36:39 437.485
HUMSAT D 01 Apr 13:36:13 13:39:19 20° 297° (WNW) 13:42:21 437.325/437.525
50 SAT 01 Apr 13:43:20 13:46:27 21° 295° (WNW) 13:49:30 437.505
UKube-1 01 Apr 13:49:17 13:51:22 13° 302° (WNW) 13:53:18 .
O/OREOS (USA 219) 01 Apr 14:04:07 14:08:42 89° 64° (ENE) 14:13:13 437.305
Gurwin Techsat 1B 01 Apr 14:07:13 14:11:38 28° 63° (ENE) 14:16:10 435.225
JAS-2 01 Apr 14:07:14 14:08:27 11° 39° (NE) 14:10:01 435.910
ESTCUBE 1 01 Apr 14:07:17 14:11:11 28° 295° (WNW) 14:15:00 437.505/2401.250
ITUPSAT 1 01 Apr 14:17:51 14:21:03 18° 89° (E) 14:24:24 437.325
TISAT 1 01 Apr 14:18:35 14:22:48 83° 285° (WNW) 14:27:00 437.305
AIST 2 01 Apr 14:32:21 14:34:05 12° 340° (NNW) 14:35:45 435.215
ITAMSAT 1 01 Apr 14:36:56 14:42:02 57° 70° (ENE) 14:47:10 435.822/435.867
YUBILEINY 01 Apr 14:37:25 14:46:13 80° 97° (E) 14:55:07 435.215
AO-7 01 Apr 14:41:26 14:47:46 26° 48° (NE) 14:54:18 29.400- 29.500
SPROUT 01 Apr 14:41:48 14:45:51 42° 290° (WNW) 14:49:53 437.525
CUBEBUG 1 01 Apr 14:47:38 14:49:56 14° 301° (WNW) 14:52:03 437.445
PCSat 01 Apr 14:50:24 14:55:24 40° 115° (ESE) 15:00:28 145.827
SWISSCUBE 01 Apr 15:03:11 15:07:52 50° 100° (E) 15:12:31 437.505
Oscar 19 01 Apr 15:03:51 15:08:27 33° 265° (W) 15:13:03 437.125/150
BEESAT 01 Apr 15:05:32 15:10:12 49° 99° (E) 15:14:50 436.000
AIST 1 01 Apr 15:13:38 15:17:38 36° 73° (ENE) 15:21:36
